This demonstration page uses our WeatherBlox Daily Observations layout. Learn more.

Left ArrowRight Arrow

39.01783, -85.05884

Hourly Observations for October 21, 2019

Temp ( °F °C ) Dew Point ( °F °C ) Humidity (%) Winds ( mph kmh ) Pressure ( in mb ) Visibility ( mi km ) Precip ( " mm )
12:52 am 00:52 Mostly Clear 57 13.9 54 12.2 90 90 S 7 11 29.93 1013 10 16 0.00 0.00
1:52 am 01:52 Mostly Clear 56 13.3 54 12.2 93 93 S 7 11 29.91 1013 9 14 0.00 0.00
2:52 am 02:52 Cloudy 58 14.4 55 12.8 90 90 SSE 12 19 29.88 1012 10 16 0.00 0.00
3:52 am 03:52 Partly Cloudy 58 14.4 55 12.8 90 90 SE 9 15 29.86 1011 10 16 0.00 0.00
4:28 am 04:28 Mostly Cloudy 57 13.9 54 12.2 90 90 SE 9 15 29.88 1012 10 16 0.00 0.00
4:52 am 04:52 Cloudy 57 13.9 55 12.8 93 93 SE 7 11 29.86 1011 10 16 0.00 0.00
5:29 am 05:29 Cloudy 58 14.4 55 12.8 90 90 SE 10 17 29.88 1012 10 16 0.00 0.00
5:52 am 05:52 Cloudy 58 14.4 55 12.8 90 90 SSE 12 19 29.86 1011 10 16 0.00 0.00
6:52 am 06:52 Cloudy 58 14.4 55 12.8 90 90 SE 14 22 29.86 1011 10 16 0.00 0.00
7:52 am 07:52 Cloudy 58 14.4 55 12.8 90 90 SE 16 26 29.83 1010 10 16 0.00 0.00
8:52 am 08:52 Cloudy 59 15 55 12.8 87 87 SE 16 26 29.82 1010 10 16 0.00 0.00
9:52 am 09:52 Cloudy 60 15.6 55 12.8 84 84 SE 18 30 29.81 1009 10 16 0.00 0.00
10:52 am 10:52 Mostly Cloudy 64 17.8 56 13.3 75 75 SE 18 30 29.78 1008 10 16 0.00 0.00
11:52 am 11:52 Mostly Cloudy 68 20 57 13.9 68 68 SSE 16 26 29.75 1008 10 16 0.00 0.00
12:52 pm 12:52 Cloudy with Light Rain 67 19.4 58 14.4 73 73 S 12 19 29.78 1008 10 16 0.00 0.00
1:52 pm 13:52 Mostly Cloudy 71 21.7 58 14.4 63 63 SSE 18 30 29.71 1006 10 16 0.00 0.00
2:52 pm 14:52 Cloudy 74 23.3 58 14.4 57 57 S 17 28 29.70 1006 10 16 0.00 0.00
3:52 pm 15:52 Cloudy 75 23.9 57 13.9 54 54 S 17 28 29.70 1006 10 16 0.00 0.00
4:52 pm 16:52 Cloudy with Light Rain 73 22.8 56 13.3 55 55 SSW 17 28 29.71 1006 10 16 0.00 0.00
5:52 pm 17:52 Cloudy with Light Rain 68 20 57 13.9 68 68 S 14 22 29.72 1007 10 16 0.00 0.00
6:52 pm 18:52 Cloudy with Light Rain 65 18.3 58 14.4 78 78 S 20 31 29.71 1006 10 16 0.00 0.00
7:52 pm 19:52 Cloudy with Light Rain 63 17.2 58 14.4 84 84 S 15 24 29.74 1007 8 13 0.03 0.76
8:52 pm 20:52 Cloudy 63 17.2 57 13.9 81 81 S 16 26 29.74 1007 10 16 0.01 0.25
9:52 pm 21:52 Cloudy 62 16.7 57 13.9 84 84 SSW 15 24 29.75 1007 10 16 0.00 0.00
10:39 pm 22:39 Cloudy 62 16.7 56 13.3 80 80 S 13 20 29.74 1007 10 16 0.00 0.00
10:52 pm 22:52 Cloudy 62 16.7 56 13.3 80 80 S 13 20 29.76 1008 10 16 0.00 0.00
11:52 pm 23:52 Cloudy 62 16.7 56 13.3 80 80 SSW 10 17 29.75 1008 10 16 0.00 0.00

Powered by AerisWeather